Погода в Уфе

Погода в Уфе : погода сейчас, прогноз погоды и архив. Всё, что Вы хотите узнать о погоде в Уфе!

Хотите узнать прогноз погоды в Уфе? Тогда Вам сюда: Погода в Уфе

Поиск расширенной информации на нашем сайте:

Другие новости

Новости СМИ2

Главная страница сайта

Новости сайта

02.10.2013

Напоминаем, что на нашем новом сайте вы можете получить высокодетализированные прогнозы погоды по пунктам России, СНГ и мира (включающие важные для авиации метеовеличины, такие как направление и скорость ветра, видимость, явления погоды, количество и форма облачности, нижняя и верхняя граница облачности), а также ознакомиться с разнообразными материалами по авиационной метеорологии и подборкой полезных ссылок на эту тему.

Сайт Метеоцентр.Азия посвящён разработке технологий оптимизации авиаметеорологического обслуживания, включая проектирование и перспективное создание нескольких автоматизированных авиаметеорологических систем:
- система выпуска высокодетальных прогностических карт явлений погоды для нижнего воздушного пространства по России и ближнему зарубежью;
- система верификации прогнозов TAF (выпускаемых синоптиками официальных АМСГ РФ и ближнего зарубежья) и AUTOTAF (выпускаемых сайтом Метеоцентр.Азия) - выявление ошибок, онлайн-сопоставление с фактической погодой METAR, автоматическое внесение коррективов в прогнозы при резком отклонении фактической погоды от прогноза, подсчёт оправдываемости прогнозов по элементам и в целом;
- система обработки, анализа и отображения авиаметеорологической информации для применения провайдерами метеорологической информации.

Рекомендуем: Организация корпоратива москва агентство open air организация праздников в москве.

Погода в Уфе - сегодня

Время (UTC), дата Ветер
(°,м/с) 
Видим.   Явления Облачность Т
(°С)
Тd
(°С)
f(%) Тe
(°С)
Pmin
(гПа)
dP
(гПа)
Po
(мм)
O2
(г/м3)
Тmin Tmax R s Состояние
почвы
18 19.06.17 220 (ЮЗ) 10 км  {гроза}  6/3 1000 м средняя, верхняя 
[Ac trans|Ci fib]
+15.3 +11.1 76 +20  1000.7  0.1  741  281           
21 19.06.17 170 (Ю) 10 км    9/6 1000 м средняя, верхняя 
[Ac trans|Ci fib]
+14.5 +11.1 80 +18  1000.4  -0.3  741  281           
00 20.06.17 160 (Ю) 10 км    9/0 средняя, верхняя 
[Ac trans|Ci fib]
+13.1 +10.9 86 +17  999.8  -0.6  741  283           
03 20.06.17 160 (Ю) 10 км    9/3 1000 м средняя, верхняя 
[Sc|Ac trans|Ci fib]
+16.8 +12 73 +22  999.5  -0.2  740  279  +12.6        влажная 
06 20.06.17 230 (ЮЗ) 10 км    9/9 600 м 
[Sc diur, vesp]
+19.8 +12.9 64 +27  999.3  -0.2  740  276           
09 20.06.17 230 (ЮЗ) 5{10}  10 км  {гроза, ливн. осадки}  9/9 600 м 
[Sc diur, vesp]
+19.4 +11.2 59 +23  998.9  -0.4  740  276           
12 20.06.17 260 (З) 10 км  {гроза, ливн. осадки}  9/9 600 м 
[Sc diur, vesp]
+18.5 +13.6 73 +26  997.8  -1.1  739  276           
15 20.06.17 230 (ЮЗ) 2{12}  10 км  в посл. час ливневой дождь  10/10 600 м 
[Sc diur, vesp]
+14.9 +11.8 82 +20  997.9  0.1  739  280    +20.9     
18 20.06.17 220 (ЮЗ) 10 км  в посл. час ливневой дождь  10/10 1000 м 
[Sc]
+14.3 +11.9 85 +19  998.5  0.6  740  281           
21 20.06.17 250 (З) 10 км  в посл. час ливневой дождь  10/10 600 м кучево-дожд. 
[Cb cap]
+13.5 +10.9 84 +17  999.1  0.5  740  282           
00 21.06.17 260 (З) 10 км  {ливн. осадки}  9/1 1000 м средняя, верхняя 
[Sc|Ac trans|Ci fib]
+12.5 +9.7 83 +13  1000.1  741  284           
03 21.06.17 260 (З) 10 км    3/0 средняя, верхняя 
[Ac trans|Ci fib]
+14.8 +10.2 74 +17  1001.5  1.4  742  282  +12.1    0.4    влажная 
06 21.06.17 260 (З) 10 км    4/4 1000 м 
[Cu hum]
+19 +9.8 55 +20  1002.3  743  278           
09 21.06.17 280 (З) 10 км    6/6 1000 м 
[Cu hum]
+21.1 +8.4 44 +21  1002.6  0.4  743  276           
12 21.06.17 230 (ЮЗ) 10 км    6/4 1000 м верхняя 
[Cu hum|Ci fib]
+22.7 +7.8 38 +23  1002.7  0.1  743  275           
15 21.06.17 210 (ЮЗ) 10 км    3/0 средняя, верхняя 
[Ac trans|Ci fib]
+22.2 +7.3 38 +22  1002.2  -0.5  743  276    +22.9       
18 21.06.17 190 (Ю) 10 км    8/0 средняя, верхняя 
[Ac trans|Ci fib]
+15.4 +10.5 73 +19  1002.5  0.1  743  281           
21 21.06.17 170 (Ю) 10 км    9/0 верхняя 
[Ci fib]
+15.8 +9.9 68 +18  1001.9  -0.6  742  281           
00 22.06.17 150 (ЮВ) 4000 м  гроза, ливневой дождь  10/10 600 м кучево-дожд. 
[Cb cap]
+14.5 +11.7 83 +19  1001.1  -0.9  742  281           
03 22.06.17 170 (Ю) 10 км  {ливн. осадки}  9/3 1000 м средняя, верхняя 
[Sc|Ac trans|Ci fib]
+16.7 +12 74 +22  1001.1  0.1  742  279  +13      влажная 
06 22.06.17 180 (Ю) 10 км  {ливн. осадки}  10/10 1000 м 
[Sc]
+19.9 +12.6 63 +26  1001.8  0.8  742  276           
09 22.06.17 180 (Ю) 10 км    9/6 1000 м средняя, верхняя 
[Sc|Ac trans|Ci fib]
+22.4 +13.3 56 +29  1001.5  0.1  742  274           
12 22.06.17 170 (Ю) 10 км    9/8 1000 м средняя 
[Sc|Ac trans]
+23.8 +14.2 55 +31  1001  -0.4  742  272           
15 22.06.17 240 (ЮЗ) 2{12}  4000 м  гроза, ливневой дождь  10/10 600 м кучево-дожд. 
[Cb cap]
+13.9 +11.9 88 +18  1001.9  0.5  742  282    +23.9     
18 22.06.17 170 (Ю) 10 км  в посл. час ливневой дождь{гроза}  10/10 600 м 
[Sc]
+15.4 +13.6 89 +23  1002.1  0.3  742  280           
Время (UTC), дата Ветер
(°,м/с) 
Видим.   Явления Облачность Т
(°С)
Тd
(°С)
f(%) Тe
(°С)
Pmin
(гПа)
dP
(гПа)
Po
(мм)
O2
(г/м3)
Тmin Tmax R s Состояние
почвы

Для получения пояснительной информации подведите курсор к названию столбца.

ПОГОДА в Уфе - архив

Всё, что Вы хотите узнать о погоде в Уфе - удобно и подробно!

Выберите нужную дату (начиная с 1 января 2015* года) и нажмите кнопку "Найти".
Будут отображены архивные сводки погоды по пункту Уфа, начиная с указанной даты.


Отображать данные в формате CSV (для использования в таблицах Excel)


Внимание! Наш архив погоды предназначен исключительно для личного некоммерческого использования в познавательных целях. Если Вам необходимы официальные справки о состоянии погоды (для производственных, юридических, коммерческих и т.п. целей), обращайтесь в органы Росгидромета.

*Примечание: данная дата относится к архиву по метеостанциям СССР (Россия, СНГ, Балтия).
Архив по метеостанциям Зарубежной Европы и Азии (кроме Китая) хранится 10 дней, по другим регионам земного шара (Китай, Африка, Америка, Австралия, Океания) - 1 день.

Уфа - район местоположения метеостанции


Название, широта, долгота, высота метеостанции:
Уфа (город) 54.7°ш. 55.8°д. 104 м над ур. моря [Российская Федерация]

Дополнительная информация

В oтличие oт бoльшинства пoгoдных сайтoв мы публикуем пoдрoбную метеoинфoрмацию в детальнoм прoфессиoнальнoм фoрмате.

Характеристики температуры и влажнoсти вoздуха измеряются на высoте 2 м в тени вдали oт зданий и деревьев.
Скoрoсть ветра измеряется на высoте 10 м (на урoвне рoста челoвека скoрoсть ветра ниже в 1.5-2 раза). Если метеoстанция нахoдится в гoрoде или в лесу, тo скoрoсть ветра занижена на 2-4 м/с пo сравнению с oткрытым местoм. Скoрoсть ветра над акватoриями крупных рек и oзёр, а также на вершинах хoлмoв на 2-5 м/с выше, чем в oбычных услoвиях.
Атмoсфернoе давление в разных тoчках местнoсти мoжет значительнo oтличаться oт давления на метеoстанции, в зависимoсти oт услoвий рельефа (при пoдъёме на 10 м давление пoнижается примернo на 1 мм рт.ст.).